Roatan, Honduras

10:14 AM CST on September 24, 2017 (GMT -0600)
Roatan International

Weather History for MHRO - January, 2013

Change the Weather History Date:

Wednesday, January 2, 2013

  Actual Average Record
Temperature  
Mean Temperature 78 °F -  
Max Temperature 84 °F 81 °F 87 °F (1999)
Min Temperature 72 °F 72 °F 69 °F (1998)
Cooling Degree Days 13    
Growing Degree Days 28 (Base 50)    
Moisture  
Dew Point 71 °F    
Average Humidity 70    
Maximum Humidity 78    
Minimum Humidity 56    
Precipitation  
Precipitation 0.00 in - - ()
Sea Level Pressure  
Sea Level Pressure 29.92 in    
Wind  
Wind Speed 12 mph ()    
Max Wind Speed 18 mph    
Max Gust Speed -    
Visibility 7.7 miles    
Events      
Averages and records for this station are not official NWS values.
T = Trace of Precipitation, MM = Missing Value Source: Averaged Metar Reports

Daily Weather History Graph

Daily Weather History Graph

Search for Another Location

Airport or City:

Trip Planner

Search our weather history database for the weather conditions in past years. The results will help you decide how hot, cold, wet, or windy it might be!

Date:

Astronomy

Jan. 02, 2013 Rise Set
Actual Time 6:14 AM CST 5:25 PM CST
Civil Twilight 5:51 AM CST 5:49 PM CST
Nautical Twilight 5:24 AM CST 6:16 PM CST
Astronomical Twilight 4:58 AM CST 6:42 PM CST
Moon 10:04 PM CST (1/2) 9:44 AM CST (1/2)
Length of Visible Light 11h 57m
Length of Day
11h 11m
Waning Gibbous, 75% of the Moon is Illuminated
Jan 2
Waning Gibbous
Jan 4
Last Quarter
Jan 11
New
Jan 18
First Quarter
Jan 26
Full

Hourly Weather History & Observations

Time (CST) Temp. Heat Index Dew Point Humidity Pressure Visibility Wind Dir Wind Speed Gust Speed Precip Events Conditions
6:00 AM 78 °F - 70 °F 69% 29.91 in 12 mi East 11.5 mph - -   Haze
6:00 AM 77.0 °F - 69.8 °F 78% 29.92 in - East 11.5 mph - N/A   Clear
7:00 AM 77.0 °F - 68.0 °F 74% 29.92 in - East 13.8 mph - N/A   Clear
8:00 AM 80.6 °F 84.6 °F 71.6 °F 74% 29.95 in - East 15.0 mph - N/A   Clear
9:00 AM 82.4 °F 87.2 °F 71.6 °F 70% 29.95 in - East 11.5 mph - N/A   Clear
10:00 AM 82.4 °F 87.2 °F 71.6 °F 70% 29.95 in - ESE 9.2 mph - N/A   Clear
11:00 AM 84.2 °F 89.6 °F 71.6 °F 66% 29.95 in 6.2 mi East 12.7 mph - N/A   Partly Cloudy
12:00 PM 84 °F - 71 °F 56% 29.94 in 14 mi East 13.8 mph - -   Scattered Clouds
12:00 PM 84.2 °F 89.6 °F 71.6 °F 66% 29.92 in 6.2 mi East 13.8 mph - N/A   Partly Cloudy
1:00 PM 84.2 °F 88.4 °F 69.8 °F 62% 29.89 in 6.2 mi East 15.0 mph - N/A   Partly Cloudy
2:00 PM 82.4 °F 87.2 °F 71.6 °F 70% 29.89 in 6.2 mi South 15.0 mph - N/A   Mostly Cloudy
3:00 PM 84 °F - 73 °F 62% 29.88 in 10 mi East 13.8 mph - -   Haze
3:00 PM 84.2 °F 90.9 °F 73.4 °F 70% 29.86 in 6.2 mi East 13.8 mph - N/A   Scattered Clouds
4:00 PM 80.6 °F 84.6 °F 71.6 °F 74% 29.89 in 6.2 mi ENE 17.3 mph - N/A   Mostly Cloudy
5:00 PM 78.8 °F - 69.8 °F 74% 29.92 in 6.2 mi East 16.1 mph - N/A   Mostly Cloudy
6:00 PM 79 °F - 70 °F 66% 29.91 in 10 mi ENE 16.1 mph - -   Haze
6:00 PM 78.8 °F - 69.8 °F 74% 29.89 in 6.2 mi ENE 16.1 mph - N/A   Mostly Cloudy
7:00 PM 78.8 °F - 71.6 °F 78% 29.92 in 6.2 mi East 18.4 mph - N/A   Mostly Cloudy
8:00 PM 78.8 °F - 71.6 °F 78% 29.95 in 6.2 mi East 15.0 mph - N/A   Scattered Clouds